• In Netherlands
  • List of Countries
  • For 7 days
  • Water Temperature
  • Satellite Maps
  • Weather Map
  • Weather Widgets
  • user-avatar
    Login

    Hourly Weather Yeghegnadzor

    Today, 25 May, Thursday

    Time Temperature Precipitation Wind Pressure Humidity
    00:00 +10°C° 0 mm 1 mps 651 mmHg 80%
    01:00 +10°C° 0 mm 1 mps 651 mmHg 80%
    02:00 +10°C° 0 mm 1 mps 651 mmHg 79%
    03:00 +10°C° 0 mm 1 mps 651 mmHg 78%
    04:00 +10°C° 0 mm 1 mps 651 mmHg 74%
    05:00 +11°C° 0 mm 1 mps 652 mmHg 70%
    06:00 +12°C° 0 mm 1 mps 652 mmHg 67%
    07:00 +14°C° 0 mm 1 mps 653 mmHg 60%
    08:00 +16°C° 0 mm 1 mps 653 mmHg 54%
    09:00 +19°C° 0 mm 1 mps 654 mmHg 47%
    10:00 +19°C° 0 mm 2 mps 654 mmHg 43%
    11:00 +20°C° 0 mm 2 mps 654 mmHg 38%
    12:00 +21°C° 0 mm 2 mps 654 mmHg 34%
    13:00 +21°C° 0 mm 2 mps 654 mmHg 34%
    14:00 +23°C° 0 mm 2 mps 654 mmHg 33%
    15:00 +23°C° 0 mm 2 mps 654 mmHg 33%
    16:00 +21°C° 0.1 mm 2 mps 653 mmHg 37%
    17:00 +21°C° 0.1 mm 1 mps 653 mmHg 42%
    18:00 +20°C° 0.1 mm 1 mps 653 mmHg 46%
    19:00 +18°C° 0 mm 1 mps 653 mmHg 53%
    20:00 +15°C° 0 mm 1 mps 653 mmHg 60%
    21:00 +13°C° 0 mm 1 mps 652 mmHg 67%
    22:00 +12°C° 0 mm 1 mps 652 mmHg 66%
    23:00 +12°C° 0 mm 1 mps 652 mmHg 65%

    Tomorrow, 26 May, Friday

    Time Temperature Precipitation Wind Pressure Humidity
    00:00 +10°C° 0 mm 2 mps 652 mmHg 65%
    01:00 +10°C° 0 mm 2 mps 652 mmHg 63%
    02:00 +10°C° 0 mm 2 mps 652 mmHg 61%
    03:00 +10°C° 0 mm 2 mps 652 mmHg 59%
    04:00 +12°C° 0 mm 1 mps 653 mmHg 57%
    05:00 +13°C° 0 mm 1 mps 653 mmHg 55%
    06:00 +14°C° 0 mm 1 mps 653 mmHg 52%
    07:00 +16°C° 0 mm 1 mps 654 mmHg 46%
    08:00 +19°C° 0 mm 1 mps 654 mmHg 40%
    09:00 +21°C° 0 mm 1 mps 655 mmHg 34%
    10:00 +21°C° 0 mm 2 mps 655 mmHg 32%
    11:00 +23°C° 0 mm 2 mps 654 mmHg 29%
    12:00 +24°C° 0 mm 2 mps 654 mmHg 26%
    13:00 +24°C° 0 mm 2 mps 654 mmHg 27%
    14:00 +24°C° 0 mm 2 mps 653 mmHg 28%
    15:00 +25°C° 0 mm 2 mps 653 mmHg 28%
    16:00 +24°C° 0.1 mm 2 mps 653 mmHg 33%
    17:00 +23°C° 0.1 mm 1 mps 653 mmHg 38%
    18:00 +22°C° 0.1 mm 1 mps 653 mmHg 42%
    19:00 +20°C° 0.1 mm 1 mps 652 mmHg 47%
    20:00 +18°C° 0.1 mm 1 mps 652 mmHg 51%
    21:00 +16°C° 0.1 mm 1 mps 652 mmHg 55%
    22:00 +15°C° 0 mm 1 mps 652 mmHg 57%
    23:00 +14°C° 0 mm 1 mps 652 mmHg 60%

    Day after tomorrow, 27 May, Saturday

    Time Temperature Precipitation Wind Pressure Humidity
    00:00 +13°C° 0 mm 1 mps 652 mmHg 62%
    01:00 +13°C° 0.1 mm 1 mps 651 mmHg 63%
    02:00 +12°C° 0.1 mm 1 mps 651 mmHg 65%
    03:00 +12°C° 0.1 mm 2 mps 651 mmHg 66%
    04:00 +13°C° 0 mm 1 mps 651 mmHg 64%
    05:00 +14°C° 0 mm 1 mps 651 mmHg 62%
    06:00 +15°C° 0 mm 1 mps 652 mmHg 60%
    07:00 +18°C° 0.2 mm 1 mps 652 mmHg 55%
    08:00 +20°C° 0.2 mm 1 mps 652 mmHg 50%
    09:00 +22°C° 0.2 mm 1 mps 653 mmHg 46%
    10:00 +23°C° 0.3 mm 2 mps 652 mmHg 42%
    11:00 +24°C° 0.3 mm 2 mps 652 mmHg 38%
    12:00 +25°C° 0.3 mm 3 mps 652 mmHg 34%
    13:00 +25°C° 0.4 mm 3 mps 651 mmHg 36%
    14:00 +25°C° 0.4 mm 3 mps 650 mmHg 38%
    15:00 +25°C° 0.4 mm 3 mps 650 mmHg 40%
    16:00 +24°C° 1.1 mm 3 mps 649 mmHg 47%
    17:00 +22°C° 1.1 mm 3 mps 649 mmHg 53%
    18:00 +20°C° 1.1 mm 2 mps 648 mmHg 60%
    19:00 +18°C° 0.9 mm 2 mps 648 mmHg 65%
    20:00 +16°C° 0.9 mm 2 mps 649 mmHg 70%
    21:00 +14°C° 0.9 mm 2 mps 649 mmHg 75%
    22:00 +14°C° 0.4 mm 1 mps 649 mmHg 75%
    23:00 +13°C° 0.4 mm 1 mps 649 mmHg 76%

    28 May, Sunday

    Time Temperature Precipitation Wind Pressure Humidity
    00:00 +13°C° 0.4 mm 1 mps 649 mmHg 76%
    01:00 +12°C° 0 mm 1 mps 649 mmHg 77%
    02:00 +12°C° 0 mm 1 mps 649 mmHg 77%
    03:00 +11°C° 0 mm 1 mps 649 mmHg 78%
    04:00 +12°C° 0 mm 1 mps 650 mmHg 76%
    05:00 +13°C° 0 mm 1 mps 650 mmHg 73%
    06:00 +14°C° 0 mm 2 mps 651 mmHg 71%
    07:00 +16°C° 0 mm 2 mps 652 mmHg 62%
    08:00 +18°C° 0 mm 2 mps 652 mmHg 53%
    09:00 +20°C° 0 mm 2 mps 653 mmHg 44%
    10:00 +21°C° 0 mm 2 mps 653 mmHg 40%
    11:00 +23°C° 0 mm 2 mps 653 mmHg 35%
    12:00 +25°C° 0 mm 2 mps 653 mmHg 31%
    13:00 +25°C° 0 mm 2 mps 653 mmHg 30%
    14:00 +26°C° 0 mm 2 mps 653 mmHg 29%
    15:00 +26°C° 0 mm 2 mps 652 mmHg 27%
    16:00 +25°C° 0 mm 2 mps 652 mmHg 30%
    17:00 +24°C° 0 mm 2 mps 652 mmHg 34%
    18:00 +23°C° 0 mm 1 mps 652 mmHg 37%
    19:00 +21°C° 0 mm 1 mps 651 mmHg 41%
    20:00 +18°C° 0 mm 1 mps 651 mmHg 46%
    21:00 +15°C° 0 mm 1 mps 651 mmHg 50%
    22:00 +14°C° 0 mm 1 mps 651 mmHg 48%
    23:00 +14°C° 0 mm 1 mps 651 mmHg 45%

    29 May, Monday

    Time Temperature Precipitation Wind Pressure Humidity
    00:00 +13°C° 0 mm 1 mps 651 mmHg 43%
    01:00 +13°C° 0 mm 1 mps 651 mmHg 45%
    02:00 +12°C° 0 mm 1 mps 651 mmHg 47%
    03:00 +12°C° 0 mm 1 mps 651 mmHg 49%
    04:00 +13°C° 0 mm 1 mps 652 mmHg 48%
    05:00 +14°C° 0 mm 1 mps 652 mmHg 48%
    06:00 +15°C° 0 mm 1 mps 653 mmHg 47%
    07:00 +18°C° 0 mm 1 mps 654 mmHg 41%
    08:00 +20°C° 0 mm 2 mps 654 mmHg 34%
    09:00 +23°C° 0 mm 2 mps 655 mmHg 28%
    10:00 +24°C° 0 mm 2 mps 655 mmHg 26%
    11:00 +25°C° 0 mm 2 mps 655 mmHg 24%
    12:00 +26°C° 0 mm 3 mps 655 mmHg 22%
    13:00 +26°C° 0.1 mm 2 mps 654 mmHg 24%
    14:00 +26°C° 0.1 mm 2 mps 654 mmHg 25%
    15:00 +26°C° 0.1 mm 2 mps 654 mmHg 27%
    16:00 +25°C° 0.4 mm 2 mps 654 mmHg 33%
    17:00 +24°C° 0.4 mm 2 mps 654 mmHg 40%
    18:00 +23°C° 0.4 mm 1 mps 654 mmHg 46%
    19:00 +21°C° 0.3 mm 1 mps 654 mmHg 52%
    20:00 +18°C° 0.3 mm 2 mps 654 mmHg 58%
    21:00 +16°C° 0.3 mm 2 mps 654 mmHg 64%
    22:00 +15°C° 0.1 mm 2 mps 653 mmHg 66%
    23:00 +15°C° 0.1 mm 2 mps 653 mmHg 67%

    30 May, Tuesday

    Time Temperature Precipitation Wind Pressure Humidity
    00:00 +14°C° 0.1 mm 2 mps 653 mmHg 69%
    01:00 +14°C° 0.2 mm 2 mps 653 mmHg 69%
    02:00 +13°C° 0.2 mm 2 mps 653 mmHg 70%
    03:00 +13°C° 0.2 mm 2 mps 653 mmHg 71%
    04:00 +14°C° 0.1 mm 1 mps 653 mmHg 69%
    05:00 +14°C° 0.1 mm 1 mps 653 mmHg 68%
    06:00 +15°C° 0.1 mm 1 mps 654 mmHg 66%
    07:00 +19°C° 0.1 mm 1 mps 654 mmHg 57%
    08:00 +21°C° 0.1 mm 1 mps 655 mmHg 49%
    09:00 +23°C° 0.1 mm 1 mps 655 mmHg 40%
    10:00 +24°C° 0.1 mm 2 mps 655 mmHg 37%
    11:00 +25°C° 0.1 mm 2 mps 655 mmHg 34%
    12:00 +26°C° 0.1 mm 3 mps 654 mmHg 31%
    13:00 +27°C° 0.1 mm 3 mps 654 mmHg 30%
    14:00 +27°C° 0.1 mm 3 mps 654 mmHg 29%
    15:00 +27°C° 0.1 mm 3 mps 653 mmHg 29%
    16:00 +26°C° 0.2 mm 3 mps 653 mmHg 32%
    17:00 +25°C° 0.2 mm 3 mps 653 mmHg 35%
    18:00 +24°C° 0.2 mm 2 mps 653 mmHg 38%
    19:00 +21°C° 0.1 mm 2 mps 652 mmHg 44%
    20:00 +18°C° 0.1 mm 2 mps 652 mmHg 50%
    21:00 +15°C° 0.1 mm 1 mps 652 mmHg 56%
    22:00 +15°C° 0 mm 1 mps 652 mmHg 56%
    23:00 +14°C° 0 mm 1 mps 651 mmHg 56%
    Show more